Location: Bieujac
(44.5398°N, 0.1549°W)
Time: 03:07:55
(UTC+00:00)

Cosmos 2082 Rocket - Pass Details

Date: 17 November 2019
Orbit: 833 x 854 km, 71.0° (Epoch: 07 December)

Event Time Altitude Azimuth Distance (km) Brightness Sun altitude
Exits shadow 06:07:22 11° 300° (WNW) 2,417 3.9 -9.4°
Maximum altitude 06:09:22 13° 321° (NW) 2,289 4.0 -9.1°
Drops below altitude 10° 06:11:52 10° 347° (NNW) 2,490 4.4 -8.6°
Sets 06:15:56 0° 15° (NNE) 3,426 5.3 -7.9°
